�������l�o���
Date,Time,MP-1(��Sv/h),MP-2(��Sv/h),MP-3(��Sv/h),MP-4(��Sv/h),MP-5(��Sv/h),MP-6(��Sv/h),MP-7(��Sv/h),MP-8(��Sv/h),����,����(m/s),���J
2022/11/18,00:00,0.585,0.850,0.534,1.079,0.750,0.337,0.596,0.563,�k��,4.6,��
2022/11/18,00:10,0.584,0.850,0.532,1.079,0.750,0.336,0.598,0.564,�k��,3.8,��
2022/11/18,00:20,0.585,0.847,0.532,1.079,0.750,0.337,0.599,0.564,�k��,4.3,��
2022/11/18,00:30,0.584,0.849,0.532,1.080,0.748,0.337,0.598,0.562,�k��,4.8,��
2022/11/18,00:40,0.586,0.850,0.533,1.078,0.749,0.336,0.598,0.562,�k��,4.9,��
2022/11/18,00:50,0.585,0.850,0.532,1.079,0.750,0.337,0.596,0.563,�k��,5.8,��
2022/11/18,01:00,0.586,0.848,0.533,1.078,0.749,0.337,0.598,0.562,�k��,5.2,��
2022/11/18,01:10,0.585,0.849,0.532,1.078,0.748,0.338,0.597,0.562,�k��,5.7,��
2022/11/18,01:20,0.585,0.850,0.532,1.078,0.751,0.338,0.599,0.563,�k��,6.0,��
2022/11/18,01:30,0.583,0.850,0.533,1.079,0.749,0.338,0.596,0.562,�k�k��,6.0,��
2022/11/18,01:40,0.585,0.849,0.533,1.079,0.750,0.336,0.597,0.562,�k�k��,6.2,��
2022/11/18,01:50,0.585,0.851,0.533,1.079,0.749,0.337,0.596,0.563,�k�k��,5.8,��
2022/11/18,02:00,0.583,0.850,0.533,1.079,0.746,0.337,0.598,0.563,�k�k��,6.5,��
2022/11/18,02:10,0.583,0.849,0.531,1.079,0.750,0.337,0.596,0.561,�k�k��,6.1,��
2022/11/18,02:20,0.582,0.848,0.530,1.080,0.750,0.337,0.597,0.564,�k��,6.1,��
2022/11/18,02:30,0.583,0.848,0.531,1.080,0.749,0.338,0.596,0.563,�k�k��,6.1,��
2022/11/18,02:40,0.585,0.848,0.531,1.076,0.750,0.336,0.596,0.562,�k�k��,5.5,��
2022/11/18,02:50,0.584,0.851,0.532,1.080,0.749,0.336,0.598,0.562,�k�k��,6.4,��
2022/11/18,03:00,0.585,0.846,0.531,1.077,0.749,0.336,0.595,0.562,�k�k��,6.1,��
2022/11/18,03:10,0.584,0.848,0.531,1.079,0.749,0.336,0.596,0.563,�k�k��,6.0,��
2022/11/18,03:20,0.584,0.848,0.533,1.077,0.749,0.337,0.596,0.563,�k�k��,5.7,��
2022/11/18,03:30,0.584,0.848,0.531,1.079,0.750,0.338,0.598,0.564,�k��,6.7,��
2022/11/18,03:40,0.583,0.848,0.532,1.079,0.750,0.336,0.597,0.561,�k��,7.2,��
2022/11/18,03:50,0.583,0.847,0.531,1.079,0.751,0.337,0.596,0.562,�k��,7.0,��
2022/11/18,04:00,0.584,0.849,0.533,1.078,0.749,0.337,0.598,0.564,�k��,7.5,��
2022/11/18,04:10,0.584,0.850,0.532,1.081,0.749,0.336,0.596,0.563,�k��,6.9,��
2022/11/18,04:20,0.583,0.850,0.532,1.079,0.750,0.338,0.597,0.564,�k��,7.2,��
2022/11/18,04:30,0.585,0.850,0.532,1.079,0.749,0.336,0.596,0.564,�k��,7.7,��
2022/11/18,04:40,0.585,0.849,0.531,1.082,0.748,0.336,0.597,0.563,�k��,6.9,��
2022/11/18,04:50,0.584,0.849,0.531,1.078,0.748,0.336,0.597,0.564,�k��,7.5,��
2022/11/18,05:00,0.583,0.849,0.529,1.080,0.749,0.337,0.596,0.563,�k��,6.9,��
2022/11/18,05:10,0.584,0.847,0.532,1.078,0.748,0.336,0.597,0.562,�k��,7.0,��
2022/11/18,05:20,0.581,0.849,0.531,1.079,0.749,0.336,0.596,0.562,�k��,6.4,��
2022/11/18,05:30,0.583,0.848,0.533,1.078,0.750,0.337,0.598,0.563,�k��,6.7,��
2022/11/18,05:40,0.584,0.849,0.532,1.079,0.749,0.336,0.597,0.564,�k��,7.2,��
2022/11/18,05:50,0.585,0.848,0.531,1.079,0.747,0.336,0.596,0.562,�k��,7.0,��
2022/11/18,06:00,0.581,0.847,0.532,1.080,0.747,0.337,0.596,0.564,�k��,7.2,��
2022/11/18,06:10,0.583,0.848,0.532,1.079,0.748,0.335,0.597,0.564,�k�k��,6.9,��
2022/11/18,06:20,0.584,0.848,0.530,1.078,0.750,0.336,0.595,0.562,�k��,6.4,��
2022/11/18,06:30,0.583,0.848,0.533,1.077,0.750,0.336,0.595,0.562,�k��,6.3,��
2022/11/18,06:40,0.584,0.846,0.532,1.078,0.747,0.338,0.595,0.562,�k��,5.6,��
2022/11/18,06:50,0.583,0.848,0.532,1.078,0.747,0.336,0.597,0.563,�k�k��,5.6,��
2022/11/18,07:00,0.582,0.849,0.530,1.077,0.748,0.335,0.596,0.562,�k��,5.6,��
2022/11/18,07:10,0.583,0.847,0.531,1.078,0.747,0.337,0.596,0.563,�k��,5.9,��
2022/11/18,07:20,0.584,0.849,0.532,1.078,0.747,0.337,0.597,0.563,�k�k��,6.5,��
2022/11/18,07:30,0.584,0.850,0.531,1.080,0.749,0.336,0.596,0.562,�k�k��,5.8,��
2022/11/18,07:40,0.583,0.847,0.532,1.081,0.747,0.336,0.597,0.563,�k��,5.1,��
2022/11/18,07:50,0.584,0.848,0.531,1.079,0.748,0.338,0.596,0.562,�k��,6.1,��
2022/11/18,08:00,0.586,0.848,0.532,1.080,0.748,0.337,0.596,0.565,�k��,5.4,��
2022/11/18,08:10,0.585,0.848,0.530,1.079,0.749,0.337,0.599,0.562,�k�k��,6.1,��
2022/11/18,08:20,0.585,0.849,0.530,1.080,0.748,0.337,0.597,0.562,�k��,5.5,��
2022/11/18,08:30,0.587,0.848,0.527,1.079,0.749,0.338,0.598,0.563,�k��,5.5,��
2022/11/18,08:40,0.586,0.847,0.531,1.080,0.749,0.335,0.596,0.561,�k��,5.2,��
2022/11/18,08:50,0.585,0.847,0.529,1.080,0.749,0.336,0.597,0.564,�k��,5.0,��
2022/11/18,09:00,0.583,0.846,0.531,1.080,0.749,0.338,0.597,0.563,�k�k��,4.5,��
2022/11/18,09:10,0.586,0.847,0.532,1.079,0.750,0.337,0.597,0.563,�k�k��,4.7,��
2022/11/18,09:20,0.585,0.848,0.531,1.081,0.749,0.337,0.598,0.564,�k�k��,4.5,��
2022/11/18,09:30,0.586,0.844,0.530,1.081,0.750,0.338,0.596,0.563,�k�k��,4.2,��
2022/11/18,09:40,0.585,0.844,0.531,1.079,0.749,0.338,0.597,0.563,�k�k��,3.9,��
2022/11/18,09:50,0.587,0.845,0.532,1.082,0.749,0.337,0.596,0.563,�k�k��,4.0,��
2022/11/18,10:00,0.586,0.847,0.532,1.079,0.751,0.337,0.595,0.562,�k�k��,4.4,��
2022/11/18,10:10,0.586,0.847,0.532,1.080,0.750,0.339,0.597,0.564,�k,3.6,��
2022/11/18,10:20,0.586,0.846,0.532,1.078,0.750,0.338,0.596,0.563,�k,3.6,��
2022/11/18,10:30,0.586,0.848,0.533,1.080,0.749,0.338,0.597,0.563,�k,3.9,��
2022/11/18,10:40,0.585,0.844,0.533,1.080,0.750,0.338,0.599,0.563,�k�k��,3.6,��
2022/11/18,10:50,0.585,0.846,0.533,1.079,0.749,0.337,0.598,0.563,�k,3.5,��
2022/11/18,11:00,0.584,0.847,0.532,1.078,0.750,0.337,0.596,0.562,�k,3.2,��
2022/11/18,11:10,0.585,0.848,0.532,1.080,0.749,0.337,0.597,0.563,�k,3.4,��
2022/11/18,11:20,0.585,0.847,0.533,1.079,0.747,0.338,0.595,0.563,�k�k��,3.7,��
2022/11/18,11:30,0.587,0.846,0.533,1.081,0.750,0.337,0.597,0.563,�k�k��,4.0,��
2022/11/18,11:40,0.585,0.849,0.534,1.083,0.749,0.337,0.596,0.565,�k�k��,3.9,��
2022/11/18,11:50,0.586,0.849,0.531,1.080,0.751,0.337,0.597,0.563,�k�k��,3.8,��
2022/11/18,12:00,0.586,0.850,0.534,1.080,0.751,0.338,0.597,0.565,�k�k��,3.9,��
2022/11/18,12:10,0.585,0.849,0.532,1.078,0.748,0.337,0.597,0.563,�k�k��,4.1,��
2022/11/18,12:20,0.585,0.851,0.533,1.079,0.750,0.339,0.598,0.564,�k�k��,3.9,��
2022/11/18,12:30,0.586,0.851,0.532,1.081,0.747,0.338,0.596,0.564,�k�k��,3.6,��
2022/11/18,12:40,0.586,0.850,0.533,1.080,0.749,0.338,0.596,0.562,�k�k��,3.0,��
2022/11/18,12:50,0.586,0.849,0.531,1.081,0.750,0.339,0.597,0.562,�k�k��,3.5,��
2022/11/18,13:00,0.586,0.850,0.532,1.083,0.749,0.339,0.595,0.561,�k�k��,2.6,��
2022/11/18,13:10,0.585,0.848,0.532,1.078,0.750,0.338,0.598,0.563,�k�k��,2.2,��
2022/11/18,13:20,0.586,0.848,0.532,1.080,0.749,0.338,0.597,0.562,�k,2.8,��
2022/11/18,13:30,0.587,0.847,0.531,1.080,0.747,0.338,0.599,0.562,�k��,1.5,��
2022/11/18,13:40,0.587,0.848,0.531,1.078,0.751,0.338,0.597,0.563,���쓌,1.2,��
2022/11/18,13:50,0.587,0.845,0.529,1.077,0.749,0.338,0.598,0.562,���쓌,0.9,��
2022/11/18,14:00,0.586,0.846,0.530,1.081,0.749,0.338,0.598,0.562,�쓌,1.7,��
2022/11/18,14:10,0.585,0.846,0.531,1.080,0.751,0.338,0.600,0.561,���쓌,2.0,��
2022/11/18,14:20,0.587,0.849,0.529,1.079,0.750,0.338,0.597,0.562,�쓌,2.0,��
2022/11/18,14:30,0.587,0.850,0.530,1.079,0.747,0.338,0.599,0.561,��쓌,1.7,��
2022/11/18,14:40,0.586,0.849,0.534,1.077,0.750,0.339,0.598,0.562,��쓌,1.7,��
2022/11/18,14:50,0.585,0.848,0.533,1.081,0.750,0.338,0.598,0.562,��쓌,2.9,��
2022/11/18,15:00,0.586,0.851,0.533,1.081,0.750,0.339,0.598,0.564,��쓌,2.2,��
2022/11/18,15:10,0.585,0.853,0.530,1.080,0.752,0.338,0.599,0.564,��쓌,3.7,��
2022/11/18,15:20,0.586,0.853,0.533,1.079,0.750,0.338,0.600,0.565,��,3.9,��
2022/11/18,15:30,0.586,0.853,0.534,1.080,0.750,0.338,0.599,0.565,��,4.4,��
2022/11/18,15:40,0.586,0.853,0.534,1.078,0.749,0.339,0.598,0.565,��,4.3,��
2022/11/18,15:50,0.587,0.854,0.533,1.080,0.750,0.338,0.600,0.566,��,5.2,��
2022/11/18,16:00,0.587,0.855,0.535,1.079,0.749,0.337,0.600,0.564,��,4.9,��
2022/11/18,16:10,0.587,0.855,0.535,1.079,0.749,0.338,0.598,0.564,��,4.6,��
2022/11/18,16:20,0.587,0.853,0.535,1.078,0.750,0.338,0.599,0.564,��,5.0,��
2022/11/18,16:30,0.588,0.854,0.535,1.078,0.751,0.338,0.600,0.564,��,4.9,��
2022/11/18,16:40,0.588,0.855,0.536,1.079,0.752,0.339,0.599,0.564,��,4.8,��
2022/11/18,16:50,0.589,0.854,0.535,1.080,0.752,0.339,0.598,0.564,��,6.1,��
2022/11/18,17:00,0.588,0.855,0.534,1.082,0.752,0.338,0.600,0.564,��,6.7,��
2022/11/18,17:10,0.588,0.855,0.534,1.080,0.751,0.338,0.598,0.565,��,7.2,��
2022/11/18,17:20,0.588,0.855,0.534,1.080,0.750,0.339,0.599,0.564,��쐼,6.3,��
2022/11/18,17:30,0.588,0.854,0.535,1.079,0.752,0.338,0.597,0.563,��쐼,5.8,��
2022/11/18,17:40,0.588,0.852,0.533,1.080,0.753,0.338,0.598,0.564,��쐼,5.8,��
2022/11/18,17:50,0.589,0.856,0.534,1.080,0.752,0.338,0.597,0.564,��쐼,7.3,��
2022/11/18,18:00,0.590,0.854,0.534,1.082,0.752,0.338,0.598,0.564,��쐼,8.1,��
2022/11/18,18:10,0.589,0.853,0.535,1.078,0.752,0.339,0.599,0.565,��쐼,9.8,��
2022/11/18,18:20,0.590,0.853,0.535,1.082,0.752,0.337,0.600,0.563,��쐼,10.0,��
2022/11/18,18:30,0.589,0.854,0.534,1.081,0.752,0.340,0.599,0.565,��쐼,9.2,��
2022/11/18,18:40,0.589,0.854,0.536,1.080,0.752,0.338,0.598,0.563,��쐼,9.9,��
2022/11/18,18:50,0.587,0.852,0.535,1.080,0.753,0.337,0.599,0.563,��쐼,9.7,��
2022/11/18,19:00,0.589,0.853,0.534,1.081,0.750,0.338,0.599,0.562,��쐼,8.8,��
2022/11/18,19:10,0.588,0.854,0.534,1.083,0.752,0.338,0.599,0.564,��쐼,8.9,��
2022/11/18,19:20,0.588,0.855,0.535,1.083,0.753,0.339,0.599,0.564,�쐼,8.7,��
2022/11/18,19:30,0.588,0.855,0.535,1.079,0.755,0.339,0.600,0.563,��쐼,9.3,��
2022/11/18,19:40,0.588,0.853,0.534,1.079,0.752,0.339,0.599,0.563,�쐼,7.6,��
2022/11/18,19:50,0.591,0.853,0.533,1.081,0.751,0.339,0.600,0.565,�쐼,6.6,��
2022/11/18,20:00,0.588,0.854,0.533,1.081,0.753,0.340,0.600,0.564,�쐼,6.7,��
2022/11/18,20:10,0.589,0.855,0.536,1.079,0.752,0.338,0.600,0.566,�쐼,6.6,��
2022/11/18,20:20,0.588,0.854,0.535,1.081,0.752,0.339,0.600,0.564,�쐼,7.0,��
2022/11/18,20:30,0.588,0.856,0.535,1.082,0.752,0.339,0.599,0.564,�쐼,8.5,��
2022/11/18,20:40,0.587,0.854,0.536,1.079,0.751,0.338,0.600,0.565,�쐼,8.0,�L
2022/11/18,20:50,0.589,0.853,0.535,1.080,0.752,0.339,0.598,0.564,�쐼,8.2,��
2022/11/18,21:00,0.591,0.853,0.535,1.082,0.753,0.337,0.599,0.566,�쐼,7.0,��
2022/11/18,21:10,0.590,0.854,0.535,1.079,0.751,0.339,0.600,0.564,��쐼,5.9,��
2022/11/18,21:20,0.589,0.855,0.535,1.082,0.752,0.339,0.599,0.564,��쐼,6.9,��
2022/11/18,21:30,0.591,0.856,0.536,1.080,0.752,0.339,0.600,0.565,��쐼,7.1,��
2022/11/18,21:40,0.589,0.857,0.535,1.080,0.752,0.339,0.600,0.565,��쐼,7.0,��
2022/11/18,21:50,0.589,0.853,0.535,1.085,0.753,0.339,0.601,0.565,�쐼,6.6,��
2022/11/18,22:00,0.591,0.855,0.535,1.078,0.753,0.341,0.601,0.563,�쐼,6.6,��
2022/11/18,22:10,0.588,0.854,0.535,1.082,0.753,0.340,0.600,0.566,�쐼,6.0,��
2022/11/18,22:20,0.589,0.854,0.535,1.080,0.752,0.339,0.601,0.564,�쐼,5.0,�L
2022/11/18,22:30,0.590,0.854,0.535,1.080,0.753,0.339,0.600,0.565,���쐼,5.5,��
2022/11/18,22:40,0.590,0.854,0.536,1.080,0.753,0.339,0.600,0.565,�쐼,5.8,��
2022/11/18,22:50,0.589,0.854,0.537,1.082,0.753,0.338,0.599,0.564,��쐼,6.5,�L
2022/11/18,23:00,0.589,0.854,0.536,1.080,0.751,0.338,0.599,0.564,��쐼,6.9,�L
2022/11/18,23:10,0.590,0.856,0.535,1.080,0.755,0.339,0.598,0.564,�쐼,7.5,��
2022/11/18,23:20,0.588,0.854,0.535,1.082,0.752,0.339,0.599,0.564,�쐼,6.2,�L
2022/11/18,23:30,0.588,0.854,0.536,1.083,0.754,0.339,0.600,0.565,�쐼,7.1,�L
2022/11/18,23:40,0.592,0.852,0.535,1.080,0.753,0.341,0.598,0.565,�쐼,7.2,��
2022/11/18,23:50,0.589,0.855,0.536,1.080,0.753,0.338,0.600,0.565,�쐼,6.5,��
